Lid_Strength_Index
13 17 22 18 16 16 16 18 19 16 12 15 15 15 13 12 12 12 12 12 11 11 10 10 10 10 10 10 9 9 9 9 8 8 8 8 7 6 5 5 4 3 2 1
16 19 15 13 14 15 17 21 21 16 13 15 16 16 13 11 12 12 12 13 12 12 11 11 10 10 10 10 10 9 9 9 7 8 8 7 7 6 4 4 4 2 2 1
19 15 13 14 16 17 18 20 20 18 16 15 17 18 14 12 11 11 12 13 12 12 12 11 11 11 11 11 10 9 8 8 8 8 7 6 6 5 5 4 4 2 1 1
17 13 14 16 17 17 22 15 16 17 22 25 16 25 16 13 13 12 13 14 13 13 12 12 11 11 11 10 10 9 8 7 7 6 7 7 7 7 5 4 3 1 0 0
18 16 16 18 16 15 18 14 16 16 24 21 21 24 17 14 15 15 14 13 13 13 13 12 12 11 10 10 10 9 8 7 6 6 6 6 6 5 5 4 4 3 1 0
17 13 16 15 14 14 13 17 18 19 24 28 23 22 19 17 16 16 14 14 13 13 13 13 12 11 11 11 10 9 8 7 6 6 5 5 6 4 5 5 4 3 1 1
18 17 15 14 17 14 18 24 29 28 28 25 25 21 18 15 15 15 15 14 14 13 14 14 14 13 12 11 10 9 8 8 7 6 5 4 4 4 5 5 4 3 2 1
26 24 20 14 16 20 19 23 27 33 29 26 25 24 18 14 14 14 14 14 14 14 14 14 14 13 12 12 11 10 9 9 8 6 6 5 3 3 3 3 3 3 3 2
25 22 16 15 14 17 20 24 18 28 29 26 25 20 15 14 18 16 15 15 15 15 15 14 14 13 13 12 12 11 10 9 9 8 6 6 5 4 4 4 4 4 2 1
19 25 20 16 14 16 20 17 25 26 30 31 26 26 20 21 21 19 16 17 17 16 16 14 14 14 13 12 12 11 10 10 9 8 7 6 6 5 5 4 5 4 3 3
19 24 22 17 23 22 23 24 23 23 22 28 29 24 19 20 21 21 18 18 19 19 17 16 14 14 13 13 13 12 12 11 10 9 8 7 7 6 6 5 5 4 4 5
15 19 24 21 15 15 18 21 18 24 28 23 22 21 20 20 20 20 18 18 18 21 18 15 15 14 14 14 14 13 12 12 11 10 9 8 8 8 7 7 6 6 6 6
16 23 28 23 20 18 21 17 16 21 18 22 26 23 20 23 23 20 19 18 20 20 19 16 15 15 15 15 15 14 13 12 11 10 10 9 9 9 9 8 7 7 7 7
13 17 23 24 25 25 23 19 16 19 27 24 21 19 15 16 21 20 20 20 24 23 20 18 17 16 16 16 16 15 14 13 12 11 11 11 10 10 9 9 8 8 7 8
16 23 19 19 20 22 20 20 20 20 19 23 18 23 17 15 17 16 19 25 22 23 22 21 19 18 17 18 17 16 15 13 12 12 12 11 11 10 10 10 9 9 9 9
15 25 23 25 19 19 22 19 19 19 18 20 18 18 14 14 24 23 21 26 22 27 25 23 23 19 19 19 18 17 16 15 14 13 12 11 11 11 11 10 10 10 10 10
18 23 26 28 22 24 25 23 22 22 23 22 24 19 25 22 23 24 22 24 22 26 27 24 25 22 20 19 18 17 16 16 15 14 13 11 12 12 11 11 11 11 11 11
22 22 27 28 28 31 19 17 19 20 19 20 21 19 20 20 23 22 25 21 22 26 26 25 25 25 22 22 19 17 17 17 16 15 14 13 12 12 12 12 12 12 12 12
16 21 26 29 35 24 18 18 17 18 18 16 16 15 19 19 16 18 18 18 22 22 22 24 24 25 22 22 19 17 18 17 17 16 15 13 12 12 12 12 12 12 12 12
15 17 22 31 32 32 19 17 17 17 22 15 14 14 14 16 20 20 15 15 16 17 17 19 19 20 21 20 19 18 19 18 18 17 15 14 12 13 13 13 13 13 14 14
23 22 22 22 28 25 18 16 17 24 19 15 14 14 15 17 17 16 15 17 16 17 17 19 19 20 21 21 20 20 20 20 19 17 15 15 14 14 13 14 14 14 15 15
23 24 26 25 28 26 16 16 18 16 16 15 15 15 15 15 16 16 17 17 17 17 18 18 19 20 21 21 21 21 22 21 19 17 16 16 15 15 14 15 15 15 16 16
22 19 22 20 20 15 15 15 13 15 15 15 14 15 15 15 16 17 17 17 18 18 17 19 19 19 21 22 22 22 23 21 20 19 18 17 16 16 16 16 16 17 16 17
19 17 19 20 16 15 14 14 14 15 14 14 14 14 15 16 17 17 19 19 19 20 21 22 22 21 22 22 21 23 22 21 20 19 16 16 16 16 16 16 16 17 18 18
17 17 19 20 16 15 15 15 15 14 14 15 16 15 15 16 17 16 18 19 19 20 23 24 23 23 24 25 25 26 23 23 20 19 17 15 16 17 16 16 17 16 16 17
18 16 18 16 12 13 13 12 17 15 17 15 16 18 19 16 16 16 17 17 18 20 21 23 23 24 24 25 26 26 25 23 22 21 20 17 16 17 18 18 17 15 15 15